Location: Borsigwerk
(50.3333°N, 18.8333°E)
Time: 18:04:48
(UTC+00:00)

Daily predictions for brighter satellites

Satellite Brightness Start Highest point End
(mag) Time Altitude Azimuth Time Altitude Azimuth Time Altitude Azimuth
ATLAS CENTAUR R/B 1.5 15:56:21 10° NNW 16:00:23 48° NE 16:04:06 10° ESE
Starlink AR 3.0 16:00:55 10° WNW 16:03:30 44° N 16:06:05 10° ENE
Cosmos 2154 Rocket 4.1 15:58:43 10° S 16:04:58 88° ESE 16:11:15 10° N
SJ 16-02 4.0 16:05:55 10° WNW 16:07:11 11° NW 16:08:27 10° NNW
SL-8 R/B 4.4 16:03:15 10° SW 16:07:53 47° SSE 16:12:29 10° E
Cosmos 2251 Rocket 3.7 16:02:52 10° NNW 16:08:04 51° ENE 16:13:15 10° SE
ATLAS 5 CENTAUR R/B 3.5 16:06:22 10° NW 16:09:41 33° NNE 16:18:40 10° E
Feng Yun 1-1 Rocket 4.5 16:06:20 10° SSE 16:12:08 87° WSW 16:18:07 10° NNW
Meteor 2-17 Rocket 4.4 16:08:01 10° S 16:14:08 77° E 16:20:16 10° NNE
Shenzhou-11 Module 4.2 16:13:38 10° SW 16:15:29 17° S 16:17:19 10° SE
ATLAS 5 CENTAUR R/B 3.5 16:12:53 10° WNW 16:16:34 22° NNW 16:20:40 10° NE
Cosmos 1125 Rocket 4.3 16:11:43 10° SW 16:16:47 51° WNW 16:21:54 10° NNE
H-2A R/B 3.8 16:15:27 10° ENE 16:17:02 11° NE 16:18:38 10° NNE
Cosmos 1825 Rocket 3.6 16:14:37 10° S 16:18:53 59° E 16:23:09 10° NNE
Cosmos 2237 Rocket 3.6 16:15:25 10° NW 16:20:43 44° WSW 16:26:01 10° S
Cosmos 1703 4.0 16:17:13 10° SSE 16:20:45 32° E 16:24:19 10° NNE
CSL-04 Rocket 4.2 16:16:13 10° SE 16:21:14 37° ENE 16:26:19 10° N
USA 32 4.0 16:16:20 10° S 16:21:31 71° E 16:26:45 10° N
Envisat 3.0 16:16:52 10° SSE 16:21:57 81° ENE 16:27:04 10° NNW
Cosmos 2366 rocket 4.3 16:17:18 10° SSE 16:23:09 45° E 16:29:07 10° NNE
USA 267 3.4 16:16:50 10° ENE 16:23:22 72° SE 16:29:54 10° SW
Cosmos 1356 Rocket 4.0 16:20:09 10° N 16:23:53 34° ENE 16:27:39 10° SE
ATLAS CENTAUR R/B 4.2 16:18:08 10° W 16:24:02 66° NNW 16:39:48 12° ENE
Cosmos 2221 3.7 16:22:18 10° NNE 16:25:41 22° ENE 16:29:01 10° ESE
Cosmos 724 4.5 16:20:19 10° SW 16:26:16 76° NW 16:32:09 10° NE
Cosmos 1455 2.1 16:23:09 10° N 16:26:59 68° ENE 16:30:43 10° SSE
Cosmos 962 Rocket 4.5 16:22:05 10° S 16:28:14 85° E 16:34:28 10° N
Okean O Rocket 4.4 16:28:31 10° SSW 16:32:05 23° W 16:35:41 10° NW
Cosmos-2242 3.1 16:28:07 10° N 16:32:28 85° WSW 16:36:44 10° S
Starlink T 3.2 16:34:14 10° WNW 16:37:24 54° N 16:39:29 19° E
Starlink N 3.2 16:36:14 10° WNW 16:39:24 55° N 16:41:26 20° E
Cosmos 407 Rocket 4.3 16:34:45 10° N 16:39:26 30° NE 16:44:02 10° ESE
Meteor 2-10 Rocket 3.5 16:35:53 10° NNW 16:41:12 88° WSW 16:46:17 10° S
Starlink Q 3.2 16:38:29 10° WNW 16:41:40 55° N 16:43:35 21° E
CZ-4 R/B 4.4 16:37:55 10° SSE 16:42:00 65° ENE 16:46:06 10° N
Okean-O 2.8 16:37:40 10° SSE 16:42:05 79° WSW 16:46:34 10° NNW
SKYMED 2 3.7 16:38:26 10° NNE 16:42:42 51° E 16:46:55 10° S
Starlink P 3.1 16:40:35 10° WNW 16:43:46 56° N 16:45:36 22° E
ISS -3.8 16:40:54 10° WSW 16:44:18 79° SSE 16:46:22 22° ENE
Starlink U 3.1 16:42:40 10° WNW 16:45:51 57° N 16:47:37 23° E
SL-16 R/B 2.6 16:41:19 10° NNW 16:46:58 68° WSW 16:52:34 10° SSE
CZ-2D R/B 3.7 16:43:58 10° SE 16:47:33 38° ENE 16:51:09 10° N
Starlink B 3.1 16:44:47 10° WNW 16:47:59 57° N 16:49:39 24° E
Cosmos 1727 Rocket 3.9 16:44:15 10° N 16:50:26 65° ENE 16:56:33 10° SSE
Cosmos 1939 Rocket 3.2 16:47:39 10° SE 16:51:24 43° ENE 16:55:14 10° N
SL-8 Rocket 4.0 16:49:36 10° S 16:55:55 89° W 17:02:14 10° N
Cosmos 44 3.1 16:52:17 10° SW 16:56:50 78° NW 17:00:20 16° NE
Cosmos 2082 3.6 16:51:27 10° SSW 16:57:04 83° ESE 17:02:45 10° NNE
Starlink AS 2.8 16:54:15 10° WNW 16:57:10 59° NNE 16:58:09 35° ENE
Starlink BA 2.8 16:54:29 10° WNW 16:57:23 59° NNE 16:58:22 35° ENE
Starlink AU 2.8 16:54:41 10° WNW 16:57:36 60° NNE 16:58:34 35° ENE
Starlink AT 2.8 16:54:55 10° WNW 16:57:50 60° NNE 16:58:48 35° ENE
Starlink BB 2.8 16:55:09 10° WNW 16:58:03 60° NNE 16:59:01 36° ENE
Starlink BC 2.8 16:55:22 10° WNW 16:58:16 60° NNE 16:59:13 36° ENE
Cosmos 2219 4.1 16:52:57 10° SW 16:58:22 46° NW 17:03:50 10° NNE
Starlink BK 2.8 16:55:35 10° WNW 16:58:29 60° NNE 16:59:26 36° ENE
Starlink AY 2.8 16:55:49 10° WNW 16:58:44 60° NNE 16:59:40 36° ENE
Starlink AW 2.8 16:56:01 10° WNW 16:58:56 60° NNE 16:59:51 37° ENE
Starlink BJ 2.8 16:56:16 10° WNW 16:59:10 60° NNE 17:00:06 37° ENE
YAOGAN 1 2.5 16:54:59 10° SSE 16:59:17 69° ENE 17:03:37 10° N
Starlink AV 2.8 16:56:31 10° WNW 16:59:26 60° NNE 17:00:20 37° ENE
Starlink BD 2.8 16:56:43 10° WNW 16:59:38 61° NNE 17:00:32 37° ENE
USA 234 3.9 16:53:17 10° SE 16:59:42 57° SW 17:06:08 10° WNW
Starlink BE 2.8 16:56:55 10° WNW 16:59:51 61° NNE 17:00:47 37° ENE
Cosmos 1603 3.8 16:54:27 10° NNW 17:00:03 54° NE 17:05:34 10° SE
Starlink BM 2.8 16:57:11 10° WNW 17:00:06 61° NNE 17:00:58 38° ENE
Starlink AX 2.8 16:57:25 10° WNW 17:00:20 61° NNE 17:01:12 38° ENE
Starlink BH 2.8 16:57:37 10° WNW 17:00:31 61° NNE 17:01:23 38° ENE
Starlink AZ 2.8 16:57:50 10° WNW 17:00:45 61° NNE 17:01:36 39° ENE
Starlink BG 2.8 16:58:04 10° WNW 17:00:59 61° NNE 17:01:49 39° ENE
Starlink BF 2.8 16:58:17 10° WNW 17:01:11 61° NNE 17:02:02 39° ENE
Starlink BL 2.8 16:58:28 10° WNW 17:01:25 62° NNE 17:02:16 39° ENE
Starlink AH 2.8 16:58:43 10° WNW 17:01:38 62° NNE 17:02:27 40° ENE
Starlink AC 2.7 16:58:58 10° WNW 17:01:53 62° NNE 17:02:42 40° ENE
Starlink X 2.7 16:59:11 10° WNW 17:02:06 62° NNE 17:02:54 40° ENE
Cosmos 2297 Rocket 2.8 16:56:36 10° SW 17:02:10 57° NW 17:07:47 10° NNE
Starlink AE 2.8 16:59:21 10° WNW 17:02:18 62° NNE 17:03:08 40° ENE
Starlink AQ 2.8 16:59:28 10° WNW 17:02:23 62° NNE 17:03:11 41° ENE
Starlink Z 2.7 16:59:37 10° WNW 17:02:32 62° NNE 17:03:19 41° ENE
Starlink AK 2.7 16:59:51 10° WNW 17:02:46 62° NNE 17:03:33 41° ENE
Starlink AL 2.7 17:00:06 10° WNW 17:03:01 62° NNE 17:03:47 42° ENE
Starlink D 3.0 16:59:49 10° WNW 17:03:03 64° NNE 17:04:09 36° E
Starlink AD 2.7 17:00:20 10° WNW 17:03:15 62° NNE 17:04:00 42° ENE
Starlink Y 2.7 17:00:46 10° WNW 17:03:41 63° NNE 17:04:25 43° ENE
Starlink AG 2.7 17:00:59 10° WNW 17:03:54 63° NNE 17:04:38 43° ENE
Starlink W 2.7 17:01:09 10° WNW 17:04:06 63° NNE 17:04:51 43° ENE
Starlink AJ 2.7 17:01:25 10° WNW 17:04:20 63° NNE 17:05:03 44° ENE
Starlink AM 2.7 17:01:54 10° WNW 17:04:49 63° NNE 17:05:30 44° ENE
SWAS 4.5 17:00:35 10° SSW 17:04:50 61° ESE 17:07:33 22° NE
Starlink AP 2.7 17:02:06 10° WNW 17:05:02 63° NNE 17:05:43 45° ENE
Starlink S 3.0 17:02:01 10° WNW 17:05:15 65° NNE 17:06:16 39° E
Starlink AA 2.7 17:02:21 10° WNW 17:05:16 64° NNE 17:05:57 45° ENE
Ariane Rocket 3.5 17:00:49 10° SE 17:05:28 38° ENE 17:10:09 10° N
Starlink AF 2.7 17:02:33 10° WNW 17:05:28 64° NNE 17:06:08 45° ENE
ARGOS 4.2 17:04:53 23° ENE 17:05:38 24° ENE 17:09:51 10° N
Starlink AB 2.7 17:02:48 10° WNW 17:05:43 64° NNE 17:06:23 46° ENE
Starlink AN 2.7 17:03:01 10° WNW 17:05:56 64° NNE 17:06:35 46° ENE
Starlink C 3.0 17:04:10 10° WNW 17:07:25 66° NNE 17:08:20 41° E
Cosmos 2263 Rocket 3.1 17:04:13 10° SSE 17:08:40 25° ESE 17:09:20 24° E
ADEOS Rocket 3.8 17:02:53 10° NNE 17:09:12 39° E 17:16:03 10° SSE
Starlink E 2.9 17:06:23 10° WNW 17:09:38 67° NNE 17:10:28 44° E
YAOGAN 6 4.0 17:06:30 10° S 17:10:00 41° W 17:13:28 10° NNW
Meteor 1-27 4.1 17:04:51 10° N 17:10:26 74° ENE 17:16:01 10° SSE
Starlink J 2.9 17:08:36 10° WNW 17:11:51 68° NNE 17:12:37 47° E
Meteor 1-11 4.1 17:07:51 10° S 17:13:25 72° E 17:18:59 10° NNE
Starlink V 2.9 17:10:48 10° WNW 17:14:04 70° NNE 17:14:43 50° ENE
Cosmos 2227 Rocket 3.0 17:10:08 10° SW 17:15:38 51° NW 17:21:10 10° NNE
ERBS 3.5 17:12:41 10° W 17:15:43 31° NNW 17:16:39 26° NNE
Starlink H 2.9 17:13:02 10° WNW 17:16:17 71° NNE 17:16:52 54° ENE
NOAA 11 4.1 17:11:12 10° SSE 17:16:42 88° ENE 17:22:13 10° NNW
CZ-2C R/B 4.1 17:16:33 27° ENE 17:17:01 27° ENE 17:21:43 10° N
Cosmos 614 Rocket 4.0 17:12:46 10° NNW 17:17:56 58° ENE 17:22:54 11° SE
Starlink F 2.9 17:15:16 10° WNW 17:18:31 73° NNE 17:19:01 58° ENE
USA 238 DEB 4.4 17:14:26 10° S 17:20:02 29° ESE 17:21:29 27° E
USA 238 4.4 17:14:34 10° S 17:20:10 29° ESE 17:21:32 27° E
Starlink G 2.9 17:17:29 10° WNW 17:20:45 74° NNE 17:21:09 62° ENE
Starlink L 2.8 17:19:42 10° WNW 17:22:59 76° NNE 17:23:18 66° ENE
Starlink A 2.8 17:21:57 10° WNW 17:25:13 77° NNE 17:25:28 71° ENE
Starlink R 2.8 17:24:11 10° WNW 17:27:28 79° NNE 17:27:37 76° ENE
Starlink K 2.8 17:26:25 10° WNW 17:29:41 81° NNE 17:29:46 80° NE
Cosmos 1943 3.1 17:24:03 10° NNW 17:29:43 68° ENE 17:33:47 19° SE
Cosmos 1821 Rocket 4.0 17:23:54 10° S 17:30:05 57° E 17:36:13 10° NNE
Cosmos 2084 4.1 17:26:03 10° NW 17:30:11 37° NNE 17:30:24 37° NE
COSMO-SKYMED 1 3.2 17:26:32 10° N 17:30:48 56° WNW 17:35:03 10° SSW
Starlink M 2.8 17:28:37 10° WNW 17:31:54 82° NNE 17:31:54 82° NNE
Cosmos 1842 Rocket 3.8 17:27:56 10° NNW 17:32:25 71° W 17:36:52 10° S
CZ-4 R/B 2.7 17:29:17 10° S 17:33:12 43° W 17:37:12 10° NNW
Starlink AR 3.8 17:35:14 10° WNW 17:37:04 39° WNW 17:37:04 39° WNW
ATLAS CENTAUR R/B 3.6 17:35:49 10° WNW 17:39:02 24° WSW 17:42:04 10° S
Cosmos 44 Rocket 3.2 17:38:34 10° SSW 17:43:18 62° SE 17:43:54 56° E
Cosmos 1140 Rocket 3.4 17:39:21 10° NNW 17:44:35 63° ENE 17:46:04 44° ESE
Meteor 2-12 Rocket 4.4 17:39:02 10° S 17:45:05 84° WNW 17:51:12 10° N
DMSP B5D1-3 4.4 17:42:51 10° NNE 17:47:59 86° ESE 17:53:06 10° SSW
NOSS 3-3 (A) 4.4 17:42:10 10° NW 17:49:31 79° NE 17:54:02 30° SE
NOSS 3-3 (C) 4.4 17:42:16 10° NW 17:49:36 78° NE 17:54:04 30° SE
Meteor 2-2 Rocket 4.4 17:43:36 10° NNW 17:49:40 82° W 17:55:40 10° S
SL-8 R/B 3.7 17:45:22 10° W 17:50:11 72° S 17:50:52 61° SE
USA 116 4.1 17:53:20 46° WNW 17:53:20 46° WNW 17:56:16 10° SW
Cosmos 2123 Rocket 3.9 17:47:59 10° N 17:54:18 67° ENE 18:00:32 10° SSE
H-2A R/B 2.0 17:55:39 56° NE 17:55:39 56° NE 18:00:27 10° N
Cosmos 967 Rocket 4.5 17:49:09 10° NW 17:55:38 65° NE 17:57:21 48° ESE
Cosmos 1934 Rocket 3.8 17:55:40 10° S 18:01:37 61° E 18:07:34 10° NNE
ATLAS 5 CENTAUR R/B 3.7 17:59:08 10° NW 18:02:58 21° N 18:03:10 21° NNE
Cosmos 2221 3.6 17:59:23 10° NNW 18:03:28 44° W 18:07:33 10° SSW
Cosmos 2082 Rocket 4.4 18:01:44 10° N 18:03:07 12° NNE 18:03:07 12° NNE
USA 267 3.5 18:03:51 37° NE 18:06:21 60° NNW 18:12:45 10° W
IRS-1A Rocket 4.3 18:01:11 10° SSE 18:06:55 80° WSW 18:12:35 10° NNW
Cosmos 2239 Rocket 4.4 18:01:41 10° S 18:08:01 89° W 18:14:24 10° N
MOS 1 4.2 18:05:01 26° SSE 18:08:20 86° ENE 18:14:04 10° NNW
Cosmos 1954 Rocket 3.9 18:03:28 10° NNW 18:08:32 69° NE 18:08:32 69° NE
ISS -1.4 18:17:49 10° W 18:19:20 24° WNW 18:19:20 24° WNW
Cosmos 407 Rocket 4.2 18:16:34 10° NNW 18:21:42 51° WSW 18:24:47 23° S
Cosmos 1869 4.5 18:18:38 10° NNW 18:22:05 42° WNW 18:22:05 42° WNW
Cosmos 1371 Rocket 4.2 18:17:54 10° SSW 18:22:04 59° SSW 18:22:04 59° SSW
CENTAUR R/B 4.4 18:18:16 10° S 18:19:01 14° S 18:19:01 14° S
Cosmos 1535 Rocket 4.4 18:17:20 10° S 18:23:41 86° E 18:30:08 10° N
In-Cosmos 22 Rocket 4.3 18:21:39 10° S 18:26:19 62° S 18:26:19 62° S
NOSS 3-2 (A) 3.7 18:23:57 10° SSW 18:28:18 50° S 18:28:18 50° S
Cosmos 676 Rocket 4.3 18:29:43 10° NNW 18:34:34 67° WNW 18:34:34 67° WNW
BREEZE-M DEB (TANK) 4.5 18:08:11 10° WNW 18:37:22 71° SSW 18:39:34 52° SSE
Ariane Rocket 4.4 18:39:48 10° SSW 18:44:27 36° W 18:49:09 10° NNW
ARGOS 3.6 18:46:23 56° NW 18:46:23 56° NW 18:50:51 10° NNW
Cosmos 2263 Rocket 2.8 18:46:38 10° SW 18:51:06 53° WSW 18:51:06 53° WSW
ADEOS Rocket 4.0 18:48:23 10° N 18:54:50 52° WNW 19:01:54 10° SW
CZ-2C R/B 3.9 18:57:36 51° NW 18:57:36 51° NW 19:02:09 10° NNW
USA 238 DEB 4.0 19:03:39 10° SW 19:08:59 58° WSW 19:08:59 58° WSW
USA 238 4.1 19:03:46 10° SW 19:09:02 57° WSW 19:09:02 57° WSW
H-2A R/B 4.2 19:36:15 22° WNW 19:36:15 22° WNW 19:39:16 10° NW
USA 267 4.5 19:51:11 36° NW 19:51:11 36° NW 19:55:09 10° WNW
